Weather History for Chipley, FL

Change the Weather History Date:

Wednesday, February 13, 2013

  Actual Average (KMAI) Record (KMAI)
Temperature  
Mean Temperature 56 °F 54 °F  
Max Temperature 64 °F 66 °F 75 °F (2000)
Min Temperature 48 °F 43 °F 24 °F (2012)
Degree Days  
Heating Degree Days 9    
Month to date heating degree days  
Since 1 July heating degree days  
Cooling Degree Days 0    
Month to date cooling degree days  
Year to date cooling degree days  
Growing Degree Days 6 (Base 50)    
Moisture  
Dew Point 46 °F    
Average Humidity 75    
Maximum Humidity 88    
Minimum Humidity 62    
Precipitation  
Precipitation 0.00 in 0.17 in 3.81 in (2000)
Month to date precipitation 2.20  
Year to date precipitation 7.24  
Sea Level Pressure  
Sea Level Pressure 29.99 in    
Wind  
Wind Speed 7 mph (NNW)    
Max Wind Speed 14 mph    
Max Gust Speed 21 mph    
Visibility 10 miles    
Events      
T = Trace of Precipitation, MM = Missing Value Source: NWS Daily Summary

Daily Weather History Graph

Daily Weather History Graph

Search for Another Location

Airport:

Trip Planner

Search our weather history database for the weather conditions in past years. The results will help you decide how hot, cold, wet, or windy it might be!

Date:

Astronomy

Feb. 13, 2013 Rise Set
Actual Time 6:24 AM CST 5:28 PM CST
Civil Twilight 5:59 AM CST 5:53 PM CST
Nautical Twilight 5:31 AM CST 6:21 PM CST
Astronomical Twilight 5:03 AM CST 6:50 PM CST
Moon 8:12 AM CST (2/13) 9:09 PM CST (2/13)
Length of Visible Light 11h 53m
Length of Day
11h 04m
Waxing Crescent, 14% of the Moon is Illuminated
Feb 13
Waxing Crescent
Feb 17
First Quarter
Feb 25
Full
Mar 4
Last Quarter
Mar 11
New

Hourly Weather History & Observations

Time (CST) Temp. Dew Point Humidity Pressure Visibility Wind Dir Wind Speed Gust Speed Precip Events Conditions
12:15 AM 64.4 °F 59.0 °F 83% 29.85 in 10.0 mi NW 5.8 mph - N/A   Clear
12:35 AM 62.6 °F 57.2 °F 82% 29.87 in 10.0 mi WNW 8.1 mph - N/A   Mostly Cloudy
12:55 AM 60.8 °F 55.4 °F 82% 29.88 in 10.0 mi NW 6.9 mph 17.3 mph N/A   Overcast
1:15 AM 60.8 °F 53.6 °F 77% 29.89 in 10.0 mi NW 10.4 mph 17.3 mph N/A   Overcast
1:35 AM 57.2 °F 53.6 °F 88% 29.88 in 10.0 mi NW 11.5 mph 17.3 mph N/A   Overcast
2:15 AM 57.2 °F 51.8 °F 82% 29.89 in 10.0 mi NW 8.1 mph - N/A   Mostly Cloudy
2:35 AM 57.2 °F 51.8 °F 82% 29.90 in 10.0 mi NNW 6.9 mph - N/A   Mostly Cloudy
2:55 AM 57.2 °F 51.8 °F 82% 29.90 in 10.0 mi NNW 8.1 mph - N/A   Overcast
3:15 AM 57.2 °F 51.8 °F 82% 29.91 in 10.0 mi NW 5.8 mph - N/A   Mostly Cloudy
3:35 AM 57.2 °F 51.8 °F 82% 29.92 in 10.0 mi WNW 8.1 mph - N/A   Mostly Cloudy
3:55 AM 55.4 °F 51.8 °F 88% 29.92 in 10.0 mi NNW 6.9 mph - N/A   Overcast
4:15 AM 55.4 °F 51.8 °F 88% 29.92 in 10.0 mi WNW 8.1 mph - N/A   Overcast
4:35 AM 55.4 °F 50.0 °F 82% 29.92 in 10.0 mi NW 6.9 mph - N/A   Mostly Cloudy
4:55 AM 55.4 °F 50.0 °F 82% 29.92 in 10.0 mi NW 3.5 mph - N/A   Mostly Cloudy
5:15 AM 55.4 °F 48.2 °F 77% 29.93 in 10.0 mi NW 8.1 mph - N/A   Partly Cloudy
5:35 AM 55.4 °F 48.2 °F 77% 29.94 in 10.0 mi NW 4.6 mph - N/A   Partly Cloudy
5:55 AM 55.4 °F 48.2 °F 77% 29.94 in 10.0 mi NNW 6.9 mph - N/A   Clear
6:15 AM 55.4 °F 48.2 °F 77% 29.95 in 10.0 mi NW 5.8 mph - N/A   Clear
6:35 AM 55.4 °F 48.2 °F 77% 29.96 in 10.0 mi NW 5.8 mph - N/A   Clear
6:55 AM 55.4 °F 48.2 °F 77% 29.96 in 10.0 mi WNW 3.5 mph - N/A   Clear
7:15 AM 55.4 °F 48.2 °F 77% 29.96 in 10.0 mi NNW 4.6 mph - N/A   Partly Cloudy
7:35 AM 55.4 °F 48.2 °F 77% 29.98 in 10.0 mi NNW 10.4 mph - N/A   Scattered Clouds
7:55 AM 55.4 °F 48.2 °F 77% 29.98 in 10.0 mi NNW 9.2 mph 16.1 mph N/A   Mostly Cloudy
8:15 AM 55.4 °F 46.4 °F 72% 29.99 in 10.0 mi NNW 9.2 mph 17.3 mph N/A   Mostly Cloudy
8:35 AM 55.4 °F 48.2 °F 77% 29.97 in 10.0 mi NW 9.2 mph 19.6 mph N/A   Scattered Clouds
8:55 AM 55.4 °F 46.4 °F 72% 29.98 in 10.0 mi NNW 11.5 mph 19.6 mph N/A   Mostly Cloudy
9:15 AM 55.4 °F 46.4 °F 72% 29.98 in 10.0 mi North 9.2 mph 20.7 mph N/A   Overcast
9:35 AM 55.4 °F 46.4 °F 72% 30.00 in 10.0 mi NW 6.9 mph - N/A   Overcast
9:55 AM 55.4 °F 46.4 °F 72% 30.01 in 10.0 mi NNW 9.2 mph - N/A   Overcast
10:15 AM 55.4 °F 46.4 °F 72% 30.02 in 10.0 mi NW 13.8 mph 18.4 mph N/A   Overcast
10:35 AM 55.4 °F 46.4 °F 72% 30.02 in 10.0 mi NW 8.1 mph - N/A   Overcast
10:55 AM 53.6 °F 46.4 °F 77% 30.03 in 10.0 mi WNW 9.2 mph 16.1 mph N/A   Overcast
11:15 AM 53.6 °F 46.4 °F 77% 30.02 in 9.0 mi NW 8.1 mph 18.4 mph N/A   Overcast
11:35 AM 53.6 °F 46.4 °F 77% 30.02 in 10.0 mi NW 8.1 mph - N/A   Overcast
11:55 AM 51.8 °F 46.4 °F 82% 30.02 in 10.0 mi NW 12.7 mph 19.6 mph N/A   Overcast
12:15 PM 51.8 °F 46.4 °F 82% 30.05 in 7.0 mi NW 10.4 mph 17.3 mph N/A   Overcast
12:35 PM 48.2 °F 44.6 °F 87% 30.01 in 6.0 mi NNW 6.9 mph - N/A   Overcast
12:55 PM 48.2 °F 44.6 °F 87% 30.02 in 7.0 mi Calm Calm - N/A   Overcast
1:15 PM 48.2 °F 44.6 °F 87% 30.02 in 8.0 mi NNW 8.1 mph - N/A   Overcast
1:35 PM 50.0 °F 44.6 °F 82% 30.01 in 10.0 mi NNW 5.8 mph - N/A   Overcast
1:55 PM 50.0 °F 44.6 °F 82% 29.99 in 10.0 mi North 5.8 mph - N/A   Overcast
2:15 PM 50.0 °F 44.6 °F 82% 29.98 in 10.0 mi North 8.1 mph - N/A   Overcast
2:35 PM 50.0 °F 44.6 °F 82% 30.01 in 10.0 mi North 5.8 mph - N/A   Overcast
2:55 PM 50.0 °F 44.6 °F 82% 30.01 in 10.0 mi NNW 5.8 mph - N/A   Overcast
3:15 PM 51.8 °F 42.8 °F 71% 30.01 in 10.0 mi NNW 4.6 mph - N/A   Mostly Cloudy
3:35 PM 51.8 °F 42.8 °F 71% 30.00 in 10.0 mi North 5.8 mph - N/A   Scattered Clouds
3:55 PM 51.8 °F 42.8 °F 71% 30.02 in 10.0 mi NW 5.8 mph - N/A   Mostly Cloudy
4:15 PM 51.8 °F 42.8 °F 71% 30.01 in 10.0 mi North 3.5 mph - N/A   Scattered Clouds
4:35 PM 51.8 °F 42.8 °F 71% 30.00 in 10.0 mi NNW 3.5 mph - N/A   Clear
4:55 PM 51.8 °F 42.8 °F 71% 30.00 in 10.0 mi North 5.8 mph - N/A   Scattered Clouds
5:15 PM 51.8 °F 42.8 °F 71% 30.01 in 10.0 mi North 3.5 mph - N/A   Mostly Cloudy
5:35 PM 51.8 °F 42.8 °F 71% 30.01 in 10.0 mi NNW 5.8 mph - N/A   Mostly Cloudy
5:55 PM 51.8 °F 42.8 °F 71% 30.01 in 10.0 mi NNW 3.5 mph - N/A   Mostly Cloudy
6:15 PM 51.8 °F 42.8 °F 71% 30.01 in 10.0 mi North 3.5 mph - N/A   Scattered Clouds
6:35 PM 51.8 °F 41.0 °F 67% 30.03 in 10.0 mi North 3.5 mph - N/A   Overcast
6:55 PM 51.8 °F 42.8 °F 71% 30.02 in 10.0 mi NNE 6.9 mph - N/A   Mostly Cloudy
7:15 PM 51.8 °F 42.8 °F 71% 30.03 in 10.0 mi NNE 5.8 mph - N/A   Scattered Clouds
7:35 PM 53.6 °F 42.8 °F 67% 30.04 in 10.0 mi NNE 5.8 mph - N/A   Mostly Cloudy
7:55 PM 53.6 °F 41.0 °F 62% 30.05 in 10.0 mi NNE 6.9 mph - N/A   Overcast
8:15 PM 51.8 °F 39.2 °F 62% 30.06 in 10.0 mi NNE 5.8 mph - N/A   Scattered Clouds
8:35 PM 51.8 °F 39.2 °F 62% 30.06 in 10.0 mi NNE 5.8 mph - N/A   Clear
8:55 PM 51.8 °F 39.2 °F 62% 30.06 in 10.0 mi NNE 5.8 mph - N/A   Clear
9:15 PM 51.8 °F 39.2 °F 62% 30.07 in 10.0 mi NNE 5.8 mph - N/A   Clear
9:35 PM 51.8 °F 39.2 °F 62% 30.07 in 10.0 mi North 4.6 mph - N/A   Clear
9:55 PM 50.0 °F 39.2 °F 66% 30.07 in 10.0 mi North 6.9 mph - N/A   Clear
10:15 PM 50.0 °F 39.2 °F 66% 30.08 in 10.0 mi North 3.5 mph - N/A   Clear
10:35 PM 50.0 °F 37.4 °F 62% 30.08 in 10.0 mi NNE 4.6 mph - N/A   Clear
10:55 PM 50.0 °F 37.4 °F 62% 30.08 in 10.0 mi NNE 5.8 mph - N/A   Clear
11:15 PM 50.0 °F 37.4 °F 62% 30.08 in 10.0 mi NNE 5.8 mph - N/A   Clear
11:35 PM 50.0 °F 37.4 °F 62% 30.08 in 10.0 mi NNE 6.9 mph - N/A   Clear
11:55 PM 48.2 °F 39.2 °F 71% 30.07 in 10.0 mi NNE 5.8 mph - N/A   Clear